This demonstration page uses our WeatherBlox Daily Observations layout. Learn more.

Left ArrowRight Arrow

44.8408, -93.29828

Hourly Observations for July 31, 2017

Temp ( °F °C ) Dew Point ( °F °C ) Humidity (%) Winds ( mph kmh ) Pressure ( in mb ) Visibility ( mi km ) Precip ( " mm )
12:53 am 00:53 Mostly Cloudy 73 22.8 61 16.1 66 66 Calm 30.16 1021 10 16 0.00 0.00
1:53 am 01:53 Mostly Cloudy 73 22.8 62 16.7 69 69 Calm 30.16 1021 10 16 0.00 0.00
2:53 am 02:53 Cloudy 72 22.2 63 17.2 73 73 Calm 30.15 1021 10 16 0.00 0.00
3:53 am 03:53 Cloudy 72 22.2 63 17.2 73 73 Calm 30.15 1021 10 16 0.00 0.00
4:53 am 04:53 Cloudy 71 21.7 63 17.2 76 76 Calm 30.16 1021 10 16 0.00 0.00
5:53 am 05:53 Mostly Cloudy 71 21.7 64 17.8 79 79 Calm 30.16 1021 10 16 0.00 0.00
6:53 am 06:53 Mostly Cloudy 70 21.1 64 17.8 82 82 Calm 30.16 1022 10 16 0.00 0.00
7:53 am 07:53 Mostly Cloudy 74 23.3 65 18.3 74 74 Calm 30.16 1021 10 16 0.00 0.00
8:53 am 08:53 Mostly Cloudy 78 25.6 63 17.2 60 60 Calm 30.16 1021 10 16 0.00 0.00
9:53 am 09:53 Partly Cloudy 79 26.1 61 16.1 54 54 S 5 7 30.16 1021 10 16 0.00 0.00
10:53 am 10:53 Partly Cloudy 81 27.2 61 16.1 51 51 VRB 3 6 30.16 1022 10 16 0.00 0.00
11:53 am 11:53 Partly Cloudy 83 28.3 62 16.7 49 49 SE 6 9 30.14 1021 10 16 0.00 0.00
12:53 pm 12:53 Partly Cloudy 84 28.9 62 16.7 48 48 S 8 13 30.13 1020 10 16 0.00 0.00
1:53 pm 13:53 Partly Cloudy 83 28.3 61 16.1 48 48 SW 8 13 30.12 1020 10 16 0.00 0.00
2:53 pm 14:53 Mostly Cloudy 84 28.9 58 14.4 41 41 S 8 13 30.11 1020 10 16 0.00 0.00
3:53 pm 15:53 Mostly Cloudy 83 28.3 60 15.6 46 46 S 8 13 30.10 1019 10 16 0.00 0.00
4:53 pm 16:53 Mostly Cloudy 83 28.3 62 16.7 49 49 SSW 7 11 30.08 1019 10 16 0.00 0.00
5:53 pm 17:53 Mostly Cloudy 82 27.8 63 17.2 53 53 SW 7 11 30.08 1019 10 16 0.00 0.00
6:53 pm 18:53 Partly Cloudy 81 27.2 59 15 47 47 WSW 9 15 30.06 1018 10 16 0.00 0.00
7:53 pm 19:53 Partly Cloudy 81 27.2 62 16.7 53 53 W 6 9 30.05 1018 10 16 0.00 0.00
8:53 pm 20:53 Mostly Clear 80 26.7 62 16.7 54 54 SW 6 9 30.06 1018 10 16 0.00 0.00
9:53 pm 21:53 Mostly Clear 79 26.1 63 17.2 58 58 WSW 3 6 30.08 1019 10 16 0.00 0.00
10:53 pm 22:53 Clear 77 25 63 17.2 62 62 SW 6 9 30.07 1018 10 16 0.00 0.00
11:53 pm 23:53 Clear 74 23.3 64 17.8 71 71 W 5 7 30.06 1018 10 16 0.00 0.00

Powered by AerisWeather